Regional Weather Roundup
Issued by NWS Nashville, TN

Home | Current Version | Previous Version | Text Only | Print | Product List | Glossary On
Versions: 1 2 3 4 5 6 7 8 9 10 11 12 13 14 15 16 17 18 19 20 21 22 23 24 25 26 27 28 29 30 31 32 33 34 35 36 37 38 39 40 41 42 43 44 45 46 47 48 49 50
000
ASUS44 KOHX 010215
RWROHX
MIDDLE TENNESSEE HOURLY WEATHER ROUNDUP
NATIONAL WEATHER SERVICE NASHVILLE TN
900 PM CDT THU JUL 31 2014

NOTE: "FAIR" INDICATES FEW OR NO CLOUDS BELOW 12,000 FEET WITH
NO SIGNIFICANT WEATHER AND/OR OBSTRUCTIONS TO VISIBILITY.

* THESE REPORTS ARE NOT UNDER NWS QUALITY CONTROL AND MAY NOT
  REPORT WEATHER SUCH AS PRECIPITATION AND FOG.


TNZ005>011-023>034-057-059-062>066-078-080-010300
...NORTHERN MIDDLE TENNESSEE...

CITY           SKY/WX    TMP DP  RH WIND       PRES   REMARKS
CLARKSVILLE    MOCLDY    74  60  61 W3        30.05S
CROSSVILLE     CLOUDY    70  63  78 CALM      30.14R
GALLATIN       CLOUDY    76  64  66 S3        30.07S
DICKSON        MOCLDY    70  61  73 CALM      30.07S
LEBANON        PTCLDY    73  62  68 CALM      30.06R
NASHVILLE      MOCLDY    74  61  63 SW3       30.06S
WEST NASHVILLE   N/A     73  63  68 CALM      30.05S
PORTLAND       MOCLDY    72  63  73 S3        30.07R
SMYRNA         PTCLDY    70  63  78 CALM      30.07R
SPARTA         CLEAR     66  63  88 CALM      30.09R
$$
TNZ056-058-060-061-075>077-079-093>097-010300
...SOUTHERN MIDDLE TENNESSEE...

CITY           SKY/WX    TMP DP  RH WIND       PRES   REMARKS
COLUMBIA       CLEAR     72  64  78 CALM      30.05S
FAYETTEVILLE   CLEAR     68  57  68 CALM      30.08R
LEWISBURG      PTCLDY    67  62  84 CALM      30.06S
MCMINNVILLE    CLEAR     68  66  94 CALM      30.09R
MURFREESBORO   PTCLDY    73  62  68 CALM      30.06S
SHELBYVILLE    CLEAR     66  63  88 CALM      30.08S
TULLAHOMA      CLEAR     66  61  82 CALM      30.09S
WINCHESTER     CLEAR     70  63  78 CALM      30.09R
$$


...KEY TO REMARKS...
VSB - VISIBILITY IN MILES
WCI - WIND CHILL INDEX
HX  - HEAT INDEX



USA.gov is the U.S. government's official web portal to all federal, state and local government web resources and services.